TimeMST,TemperatureF,Dew PointF,Humidity,Sea Level PressureIn,VisibilityMPH,Wind Direction,Wind SpeedMPH,Gust SpeedMPH,PrecipitationIn,Events,Conditions,WindDirDegrees,DateUTC
12:02 AM,10.4,8.6,92,29.82,0.8,Calm,Calm,-,N/A,,Mist,0,2012-12-13 07:02:00
12:51 AM,17.1,12.9,84,29.94,3.0,ENE,4.6,-,N/A,,Mostly Cloudy,70,2012-12-13 07:51:00
1:00 AM,17.6,14.0,86,29.82,10.0,NE,3.5,-,N/A,,Scattered Clouds,50,2012-12-13 08:00:00
1:46 AM,14.0,8.6,79,29.84,1.8,Calm,Calm,-,N/A,,Haze,0,2012-12-13 08:46:00
1:51 AM,14.0,9.0,80,29.96,1.0,Calm,Calm,-,N/A,,Haze,0,2012-12-13 08:51:00
1:57 AM,14.0,8.6,79,29.83,2.0,Calm,Calm,-,N/A,,Haze,0,2012-12-13 08:57:00
2:03 AM,14.0,8.6,79,29.83,8.0,Calm,Calm,-,N/A,,Partly Cloudy,0,2012-12-13 09:03:00
2:51 AM,10.9,6.1,81,29.98,10.0,NE,3.5,-,N/A,,Clear,40,2012-12-13 09:51:00
3:51 AM,21.9,16.0,78,29.94,10.0,North,10.4,-,N/A,,Clear,350,2012-12-13 10:51:00
5:51 AM,16.0,10.9,81,29.98,10.0,East,3.5,-,N/A,,Clear,80,2012-12-13 12:51:00
6:20 AM,10.4,6.8,85,29.86,2.0,Calm,Calm,-,N/A,,Haze,0,2012-12-13 13:20:00
6:23 AM,10.4,6.8,85,29.86,1.0,Calm,Calm,-,N/A,,Haze,0,2012-12-13 13:23:00
6:29 AM,12.2,8.6,85,29.85,0.5,Calm,Calm,-,N/A,Fog,Light Freezing Fog,0,2012-12-13 13:29:00
6:42 AM,12.2,6.8,79,29.85,1.0,Calm,Calm,-,N/A,,Haze,0,2012-12-13 13:42:00
6:51 AM,12.0,5.0,73,29.99,0.2,Calm,Calm,-,N/A,,Haze,0,2012-12-13 13:51:00
7:41 AM,10.4,6.8,85,29.86,1.2,Calm,Calm,-,N/A,,Haze,0,2012-12-13 14:41:00
7:48 AM,10.4,5.0,79,29.87,2.0,Calm,Calm,-,N/A,,Haze,0,2012-12-13 14:48:00
7:51 AM,10.0,3.9,76,30.02,2.5,Calm,Calm,-,N/A,,Haze,0,2012-12-13 14:51:00
8:00 AM,10.4,3.2,73,29.87,10.0,Calm,Calm,-,N/A,,Overcast,0,2012-12-13 15:00:00
8:29 AM,8.6,3.2,79,29.88,6.0,Calm,Calm,-,N/A,,Haze,0,2012-12-13 15:29:00
8:51 AM,9.0,3.0,77,30.06,9.0,Calm,Calm,-,N/A,,Clear,0,2012-12-13 15:51:00
9:36 AM,12.2,8.6,85,29.89,4.0,Calm,Calm,-,N/A,,Haze,0,2012-12-13 16:36:00
9:38 AM,14.0,8.6,79,29.89,1.8,Calm,Calm,-,N/A,,Haze,0,2012-12-13 16:38:00
9:40 AM,14.0,8.6,79,29.89,0.8,Calm,Calm,-,N/A,,Haze,0,2012-12-13 16:40:00
9:51 AM,15.1,10.0,80,30.05,0.2,Calm,Calm,-,N/A,,Haze,0,2012-12-13 16:51:00
9:57 AM,17.6,10.4,73,29.88,1.5,Calm,Calm,-,N/A,,Haze,0,2012-12-13 16:57:00
9:59 AM,17.6,10.4,73,29.88,4.0,Calm,Calm,-,N/A,,Haze,0,2012-12-13 16:59:00
10:13 AM,17.6,10.4,73,29.89,2.5,Calm,Calm,-,N/A,,Haze,0,2012-12-13 17:13:00
10:20 AM,17.6,12.2,79,29.89,9.0,Calm,Calm,-,N/A,,Clear,0,2012-12-13 17:20:00
10:51 AM,21.9,16.0,78,30.03,8.0,Calm,Calm,-,N/A,,Clear,0,2012-12-13 17:51:00
11:51 AM,21.9,17.1,82,30.03,10.0,Calm,Calm,-,N/A,,Clear,0,2012-12-13 18:51:00
12:51 PM,24.1,18.0,77,29.99,10.0,Calm,Calm,-,N/A,,Clear,0,2012-12-13 19:51:00
1:51 PM,24.1,18.0,77,29.98,10.0,Calm,Calm,-,N/A,,Clear,0,2012-12-13 20:51:00
2:51 PM,24.1,18.0,77,29.96,10.0,Calm,Calm,-,N/A,,Clear,0,2012-12-13 21:51:00
5:51 PM,18.0,15.1,88,29.94,10.0,Calm,Calm,-,N/A,,Mostly Cloudy,0,2012-12-14 00:51:00
6:51 PM,21.0,18.0,88,29.95,10.0,Calm,Calm,-,N/A,,Overcast,0,2012-12-14 01:51:00
7:51 PM,25.0,21.9,88,29.93,10.0,Calm,Calm,-,N/A,,Overcast,0,2012-12-14 02:51:00
8:51 PM,23.0,19.0,85,29.92,10.0,NNW,4.6,-,N/A,,Overcast,340,2012-12-14 03:51:00
10:51 PM,24.1,21.0,88,29.87,10.0,Calm,Calm,-,N/A,,Overcast,0,2012-12-14 05:51:00